,,Stat5,,Stat1,,Stat2,,Stat3,,Stat4,,Wind1,,Wind1,
time,status,PA1M_AVG,status,PR1M_SUM,status,RH1M_AVG,status,SR1M_AVG,status,TA1M_AVG,status,W1dAve1m,status,W1sAve1m,
2002-06-03, 00:00:01,VALID,917.811,VALID,0,VALID,99.5946,VALID,0,VALID,19.3794,VALID,178,VALID,0.514258,
2002-06-03, 00:01:01,VALID,917.832,VALID,0,VALID,99.5984,VALID,0,VALID,19.3635,VALID,179,VALID,0.201389,
2002-06-03, 00:02:01,VALID,917.849,VALID,0,VALID,99.5908,VALID,-0.0169808,VALID,19.3732,VALID,179,VALID,0.0294118,
2002-06-03, 00:03:01,VALID,917.869,VALID,0,VALID,99.5933,VALID,0,VALID,19.4281,VALID,243,VALID,0.490039,
2002-06-03, 00:04:01,VALID,917.892,VALID,0,VALID,99.5946,VALID,-0.0169808,VALID,19.4967,VALID,223,VALID,0.331439,
2002-06-03, 00:05:01,VALID,917.911,VALID,0,VALID,99.5895,VALID,0,VALID,19.5129,VALID,178,VALID,0.272768,
2002-06-03, 00:06:01,VALID,917.918,VALID,0,VALID,99.5819,VALID,0,VALID,19.5059,VALID,138,VALID,0.10625,
2002-06-03, 00:07:01,VALID,917.923,VALID,0,VALID,99.587,VALID,0,VALID,19.5158,VALID,211,VALID,0.388839,
2002-06-03, 00:08:01,VALID,917.912,VALID,0,VALID,99.5921,VALID,0,VALID,19.5288,VALID,235,VALID,0.423483,
2002-06-03, 00:09:01,VALID,917.911,VALID,0,VALID,99.5806,VALID,0,VALID,19.5641,VALID,248,VALID,0.391602,
2002-06-03, 00:10:01,VALID,917.909,VALID,0,VALID,99.5844,VALID,0,VALID,19.5864,VALID,244,VALID,0.557765,
2002-06-03, 00:11:01,VALID,917.911,VALID,0,VALID,99.5883,VALID,0.0169808,VALID,19.6222,VALID,244,VALID,0.309598,
2002-06-03, 00:12:00,VALID,917.914,VALID,0,VALID,99.5844,VALID,-0.0169808,VALID,19.6453,VALID,244,VALID,0.00722656,
2002-06-03, 00:13:00,VALID,917.943,VALID,0,VALID,99.5844,VALID,0,VALID,19.6346,VALID,243,VALID,0.189732,
2002-06-03, 00:14:00,VALID,917.96,VALID,0,VALID,99.5921,VALID,-0.0169808,VALID,19.6326,VALID,243,VALID,0.0452665,
2002-06-03, 00:15:00,VALID,917.982,VALID,0,VALID,99.5959,VALID,0.0169808,VALID,19.612,VALID,243,VALID,0.000390625,
2002-06-03, 00:16:00,VALID,918.007,VALID,0,VALID,99.5883,VALID,-0.0169808,VALID,19.6125,VALID,243,VALID,0.101089,
2002-06-03, 00:17:00,VALID,918.03,VALID,0,VALID,99.5933,VALID,0,VALID,19.6224,VALID,243,VALID,0.0544643,
2002-06-03, 00:18:00,VALID,918.079,VALID,0,VALID,99.5959,VALID,-0.0339617,VALID,19.6292,VALID,245,VALID,0.0259766,
2002-06-03, 00:19:00,VALID,918.094,VALID,0,VALID,99.5959,VALID,-0.0169808,VALID,19.6031,VALID,257,VALID,0.147321,
2002-06-03, 00:20:00,VALID,918.118,VALID,0,VALID,99.5972,VALID,0,VALID,19.5414,VALID,257,VALID,0.121783,
2002-06-03, 00:21:00,VALID,918.125,VALID,0,VALID,99.5959,VALID,-0.0169808,VALID,19.5124,VALID,257,VALID,0.116016,
2002-06-03, 00:22:00,VALID,918.152,VALID,0,VALID,99.6073,VALID,0,VALID,19.5024,VALID,257,VALID,0.0104167,
2002-06-03, 00:23:00,VALID,918.153,VALID,0,VALID,99.6035,VALID,-0.0169808,VALID,19.4704,VALID,320,VALID,0.343973,
2002-06-03, 00:24:00,VALID,918.164,VALID,0,VALID,99.6061,VALID,-0.0339617,VALID,19.4316,VALID,29,VALID,0.719727,
2002-06-03, 00:25:00,VALID,918.164,VALID,0,VALID,99.6162,VALID,-0.0169808,VALID,19.454,VALID,40,VALID,0.795089,
2002-06-03, 00:26:00,VALID,918.152,VALID,0,VALID,99.6099,VALID,0,VALID,19.4669,VALID,42,VALID,0.747932,
2002-06-03, 00:27:00,VALID,918.123,VALID,0,VALID,99.6124,VALID,-0.0169808,VALID,19.4443,VALID,36,VALID,0.846289,
2002-06-03, 00:28:00,VALID,918.098,VALID,0,VALID,99.615,VALID,-0.0339617,VALID,19.451,VALID,40,VALID,0.748816,
2002-06-03, 00:29:00,VALID,918.087,VALID,0,VALID,99.6086,VALID,-0.0339617,VALID,19.4448,VALID,49,VALID,0.762946,
2002-06-03, 00:30:00,VALID,918.05,VALID,0,VALID,99.6061,VALID,-0.0509425,VALID,19.3991,VALID,51,VALID,1.00586,
2002-06-03, 00:31:00,VALID,918.037,VALID,0,VALID,99.6124,VALID,0,VALID,19.3643,VALID,52,VALID,1.04219,
2002-06-03, 00:32:00,VALID,918.03,VALID,0,VALID,99.6239,VALID,-0.0509425,VALID,19.3156,VALID,49,VALID,0.824219,
2002-06-03, 00:33:00,VALID,918.027,VALID,0,VALID,99.634,VALID,-0.0169808,VALID,19.2699,VALID,45,VALID,0.465625,
2002-06-03, 00:34:00,VALID,918.037,VALID,0,VALID,99.6277,VALID,-0.0169808,VALID,19.2537,VALID,45,VALID,0.220881,
2002-06-03, 00:35:00,VALID,918.034,VALID,0,VALID,99.6391,VALID,-0.0169808,VALID,19.2411,VALID,41,VALID,0.282143,
2002-06-03, 00:36:00,VALID,918.044,VALID,0,VALID,99.6378,VALID,0,VALID,19.2214,VALID,32,VALID,0.418945,
2002-06-03, 00:37:00,VALID,918.054,VALID,0,VALID,99.6353,VALID,-0.0339617,VALID,19.1765,VALID,27,VALID,0.373437,
2002-06-03, 00:38:00,VALID,918.052,VALID,0,VALID,99.6353,VALID,0,VALID,19.2028,VALID,21,VALID,0.147518,
2002-06-03, 00:39:00,VALID,918.049,VALID,0,VALID,99.6315,VALID,0,VALID,19.251,VALID,342,VALID,0.286133,
2002-06-03, 00:40:00,VALID,918.048,VALID,0,VALID,99.6175,VALID,0,VALID,19.3283,VALID,281,VALID,0.328598,
2002-06-03, 00:41:00,VALID,918.038,VALID,0,VALID,99.6289,VALID,-0.0339617,VALID,19.3797,VALID,230,VALID,0.445313,
2002-06-03, 00:42:00,VALID,918.026,VALID,0,VALID,99.6213,VALID,-0.0339617,VALID,19.4162,VALID,234,VALID,0.439844,
2002-06-03, 00:43:00,VALID,918.02,VALID,0,VALID,99.6175,VALID,-0.0169808,VALID,19.448,VALID,236,VALID,0.445089,
2002-06-03, 00:44:00,VALID,918.023,VALID,0,VALID,99.615,VALID,-0.0169808,VALID,19.4935,VALID,251,VALID,0.106388,
2002-06-03, 00:45:00,VALID,918.027,VALID,0,VALID,99.6111,VALID,-0.0169808,VALID,19.5191,VALID,350,VALID,0.218164,
2002-06-03, 00:46:00,VALID,918.03,VALID,0,VALID,99.6162,VALID,-0.0169808,VALID,19.5091,VALID,351,VALID,0.0617898,
2002-06-03, 00:47:00,VALID,918.034,VALID,0,VALID,99.6226,VALID,-0.0339617,VALID,19.4994,VALID,351,VALID,0.0785714,
2002-06-03, 00:48:00,VALID,918.031,VALID,0,VALID,99.6289,VALID,-0.0169808,VALID,19.493,VALID,351,VALID,0,
2002-06-03, 00:49:00,VALID,918.011,VALID,0,VALID,99.6289,VALID,0.0169808,VALID,19.4893,VALID,351,VALID,0,
2002-06-03, 00:50:00,VALID,917.987,VALID,0,VALID,99.6188,VALID,0,VALID,19.5158,VALID,351,VALID,0,
2002-06-03, 00:51:00,VALID,917.973,VALID,0,VALID,99.62,VALID,-0.0339617,VALID,19.5414,VALID,351,VALID,0.0101562,
2002-06-03, 00:52:00,VALID,917.961,VALID,0,VALID,99.6277,VALID,0,VALID,19.5641,VALID,351,VALID,0,
2002-06-03, 00:53:00,VALID,917.943,VALID,0,VALID,99.6226,VALID,0,VALID,19.577,VALID,352,VALID,0.00357143,
2002-06-03, 00:54:00,VALID,917.938,VALID,0,VALID,99.6239,VALID,0,VALID,19.6028,VALID,352,VALID,0.0494141,
2002-06-03, 00:55:00,VALID,917.903,VALID,0,VALID,99.615,VALID,0,VALID,19.5961,VALID,352,VALID,0,
2002-06-03, 00:56:00,VALID,917.872,VALID,0,VALID,99.6162,VALID,0.0339617,VALID,19.57,VALID,352,VALID,0.0011489,
2002-06-03, 00:57:00,VALID,917.841,VALID,0,VALID,99.6264,VALID,0.0509425,VALID,19.573,VALID,352,VALID,0.0730469,
2002-06-03, 00:58:00,VALID,917.807,VALID,0,VALID,99.6264,VALID,0.0509425,VALID,19.5916,VALID,352,VALID,0.0331439,
2002-06-03, 00:59:00,VALID,917.785,VALID,0,VALID,99.6277,VALID,0,VALID,19.6244,VALID,352,VALID,0.0741071,
2002-06-03, 01:00:00,VALID,917.758,VALID,0,VALID,99.6226,VALID,0.0339617,VALID,19.6319,VALID,354,VALID,0.0779297,
2002-06-03, 01:01:00,VALID,917.744,VALID,0,VALID,99.6251,VALID,0,VALID,19.6182,VALID,9,VALID,0.342187,
2002-06-03, 01:02:00,VALID,917.733,VALID,0,VALID,99.6239,VALID,0,VALID,19.6157,VALID,10,VALID,0.511029,
2002-06-03, 01:03:00,VALID,917.735,VALID,0,VALID,99.6315,VALID,0,VALID,19.5988,VALID,10,VALID,0.482227,
2002-06-03, 01:04:00,VALID,917.724,VALID,0,VALID,99.6328,VALID,0,VALID,19.6252,VALID,10,VALID,0.133996,
2002-06-03, 01:05:00,VALID,917.708,VALID,0,VALID,99.6302,VALID,0.0339617,VALID,19.5988,VALID,10,VALID,0.0515625,
2002-06-03, 01:06:00,VALID,917.692,VALID,0,VALID,99.6315,VALID,0,VALID,19.5728,VALID,10,VALID,0,
2002-06-03, 01:07:00,VALID,917.68,VALID,0,VALID,99.6315,VALID,0,VALID,19.5797,VALID,10,VALID,0,
2002-06-03, 01:08:00,VALID,917.651,VALID,0,VALID,99.6213,VALID,0,VALID,19.5889,VALID,10,VALID,0.0349265,
2002-06-03, 01:09:00,VALID,917.628,VALID,0,VALID,99.6378,VALID,0,VALID,19.6247,VALID,12,VALID,0.477734,
2002-06-03, 01:10:00,VALID,917.6,VALID,0,VALID,99.6328,VALID,0,VALID,19.6443,VALID,13,VALID,0.557528,
2002-06-03, 01:11:00,VALID,917.58,VALID,0,VALID,99.6213,VALID,0,VALID,19.6602,VALID,18,VALID,0.5375,
2002-06-03, 01:12:00,VALID,917.561,VALID,0,VALID,99.6277,VALID,0,VALID,19.657,VALID,18,VALID,0.40957,
2002-06-03, 01:13:00,VALID,917.528,VALID,0,VALID,99.6213,VALID,0,VALID,19.647,VALID,18,VALID,0.531696,
2002-06-03, 01:14:00,VALID,917.502,VALID,0,VALID,99.6378,VALID,0,VALID,19.6379,VALID,19,VALID,0.252298,
2002-06-03, 01:15:00,VALID,917.485,VALID,0,VALID,99.6417,VALID,0.0339617,VALID,19.621,VALID,22,VALID,0.169336,
2002-06-03, 01:16:00,VALID,917.45,VALID,0,VALID,99.6404,VALID,0.0169808,VALID,19.5924,VALID,64,VALID,0.432292,
2002-06-03, 01:17:00,VALID,917.423,VALID,0,VALID,99.6366,VALID,0,VALID,19.5405,VALID,92,VALID,0.458705,
2002-06-03, 01:18:00,VALID,917.41,VALID,0,VALID,99.6378,VALID,0.0169808,VALID,19.5111,VALID,98,VALID,0.343945,
2002-06-03, 01:19:00,VALID,917.397,VALID,0,VALID,99.634,VALID,0.0169808,VALID,19.4923,VALID,102,VALID,0.647545,
2002-06-03, 01:20:00,VALID,917.371,VALID,0,VALID,99.6391,VALID,0,VALID,19.4632,VALID,118,VALID,0.832031,
2002-06-03, 01:21:00,VALID,917.334,VALID,0,VALID,99.6455,VALID,0,VALID,19.4309,VALID,128,VALID,0.7,
2002-06-03, 01:22:00,VALID,917.295,VALID,0,VALID,99.6531,VALID,0.0169808,VALID,19.4311,VALID,123,VALID,0.685606,
2002-06-03, 01:23:00,VALID,917.249,VALID,0,VALID,99.6518,VALID,0.0169808,VALID,19.4277,VALID,129,VALID,0.791964,
2002-06-03, 01:24:00,VALID,917.216,VALID,0,VALID,99.648,VALID,0,VALID,19.4242,VALID,130,VALID,0.550195,
2002-06-03, 01:25:00,VALID,917.195,VALID,0,VALID,99.6646,VALID,0.0339617,VALID,19.4339,VALID,119,VALID,0.608036,
2002-06-03, 01:26:00,VALID,917.164,VALID,0,VALID,99.6544,VALID,0.0339617,VALID,19.4242,VALID,119,VALID,0.403033,
2002-06-03, 01:27:00,VALID,917.139,VALID,0,VALID,99.662,VALID,0,VALID,19.4145,VALID,119,VALID,0.230859,
2002-06-03, 01:28:00,VALID,917.132,VALID,0,VALID,99.6646,VALID,0.0169808,VALID,19.4085,VALID,118,VALID,0.147017,
2002-06-03, 01:29:00,VALID,917.12,VALID,0,VALID,99.6735,VALID,0.0169808,VALID,19.3889,VALID,134,VALID,0.445536,
2002-06-03, 01:30:00,VALID,917.116,VALID,0,VALID,99.6633,VALID,0.0169808,VALID,19.376,VALID,156,VALID,0.697852,
2002-06-03, 01:31:00,VALID,917.092,VALID,0,VALID,99.6633,VALID,0.0509425,VALID,19.3598,VALID,156,VALID,0.873884,
2002-06-03, 01:32:00,VALID,917.084,VALID,0,VALID,99.6671,VALID,0.0169808,VALID,19.3631,VALID,151,VALID,0.721278,
2002-06-03, 01:33:00,VALID,917.067,VALID,0,VALID,99.6684,VALID,0,VALID,19.3598,VALID,150,VALID,0.428125,
2002-06-03, 01:34:00,VALID,917.039,VALID,0,VALID,99.6671,VALID,0,VALID,19.3698,VALID,148,VALID,0.493608,
2002-06-03, 01:35:00,VALID,917.013,VALID,0,VALID,99.6696,VALID,0,VALID,19.3732,VALID,147,VALID,0.58058,
2002-06-03, 01:36:00,VALID,916.98,VALID,0,VALID,99.6671,VALID,0,VALID,19.3695,VALID,146,VALID,0.489258,
2002-06-03, 01:37:00,VALID,916.959,VALID,0,VALID,99.6646,VALID,0.0169808,VALID,19.3693,VALID,146,VALID,0.105134,
2002-06-03, 01:38:00,VALID,916.946,VALID,0,VALID,99.6709,VALID,0,VALID,19.3794,VALID,146,VALID,0,
2002-06-03, 01:39:00,VALID,916.94,VALID,0,VALID,99.6671,VALID,0.0169808,VALID,19.3929,VALID,146,VALID,0.139062,
2002-06-03, 01:40:00,VALID,916.931,VALID,0,VALID,99.6633,VALID,-0.0169808,VALID,19.3894,VALID,149,VALID,0.432765,
2002-06-03, 01:41:00,VALID,916.928,VALID,0,VALID,99.6633,VALID,0.0169808,VALID,19.376,VALID,154,VALID,0.285268,
2002-06-03, 01:42:00,VALID,916.906,VALID,0,VALID,99.662,VALID,0,VALID,19.3794,VALID,155,VALID,0.116992,
2002-06-03, 01:43:00,VALID,916.886,VALID,0,VALID,99.6658,VALID,0,VALID,19.3859,VALID,157,VALID,0.0122768,
2002-06-03, 01:44:00,VALID,916.859,VALID,0,VALID,99.6646,VALID,0.0169808,VALID,19.3958,VALID,156,VALID,0.0379136,
2002-06-03, 01:45:00,VALID,916.83,VALID,0,VALID,99.6569,VALID,0.0169808,VALID,19.4083,VALID,156,VALID,0.0240234,
2002-06-03, 01:46:00,VALID,916.814,VALID,0,VALID,99.6633,VALID,0,VALID,19.4117,VALID,100,VALID,0.384706,
2002-06-03, 01:47:00,VALID,916.796,VALID,0,VALID,99.662,VALID,-0.0169808,VALID,19.3991,VALID,68,VALID,0.441295,
2002-06-03, 01:48:00,VALID,916.778,VALID,0,VALID,99.6582,VALID,0.0169808,VALID,19.3762,VALID,66,VALID,0.476563,
2002-06-03, 01:49:00,VALID,916.767,VALID,0,VALID,99.662,VALID,0,VALID,19.3568,VALID,57,VALID,0.320982,
2002-06-03, 01:50:00,VALID,916.749,VALID,0,VALID,99.6658,VALID,0,VALID,19.3568,VALID,55,VALID,0.224724,
2002-06-03, 01:51:00,VALID,916.745,VALID,0,VALID,99.6582,VALID,-0.0169808,VALID,19.3476,VALID,55,VALID,0.194531,
2002-06-03, 01:52:00,VALID,916.727,VALID,0,VALID,99.6722,VALID,0.0169808,VALID,19.3146,VALID,55,VALID,0.153409,
2002-06-03, 01:53:00,VALID,916.712,VALID,0,VALID,99.6722,VALID,0,VALID,19.3121,VALID,55,VALID,0.105804,
2002-06-03, 01:54:00,VALID,916.701,VALID,0,VALID,99.6735,VALID,0,VALID,19.2952,VALID,55,VALID,0.0984375,
2002-06-03, 01:55:00,VALID,916.704,VALID,0,VALID,99.6849,VALID,-0.0849042,VALID,19.2875,VALID,55,VALID,0.160268,
2002-06-03, 01:56:00,VALID,916.709,VALID,0,VALID,99.69,VALID,-0.0679233,VALID,19.2452,VALID,55,VALID,0.0974265,
2002-06-03, 01:57:00,VALID,916.697,VALID,0,VALID,99.6887,VALID,-0.0679233,VALID,19.2062,VALID,55,VALID,0,
2002-06-03, 01:58:00,VALID,916.697,VALID,0,VALID,99.6938,VALID,-0.0849042,VALID,19.1772,VALID,55,VALID,0,
2002-06-03, 01:59:00,VALID,916.704,VALID,0,VALID,99.6963,VALID,-0.0509425,VALID,19.1672,VALID,55,VALID,0,
2002-06-03, 02:00:00,VALID,916.711,VALID,0,VALID,99.7002,VALID,-0.0679233,VALID,19.1449,VALID,55,VALID,0,
2002-06-03, 02:01:00,VALID,916.722,VALID,0,VALID,99.7002,VALID,-0.0679233,VALID,19.1193,VALID,55,VALID,0,
2002-06-03, 02:02:00,VALID,916.726,VALID,0,VALID,99.6963,VALID,-0.0509425,VALID,19.0997,VALID,55,VALID,0,
2002-06-03, 02:03:00,VALID,916.738,VALID,0,VALID,99.6963,VALID,-0.0679233,VALID,19.0743,VALID,55,VALID,0,
2002-06-03, 02:04:00,VALID,916.749,VALID,0,VALID,99.7065,VALID,-0.0339617,VALID,19.0609,VALID,55,VALID,0,
2002-06-03, 02:05:00,VALID,916.798,VALID,0,VALID,99.6979,VALID,-0.0849042,VALID,19.0415,VALID,55,VALID,0,
2002-06-03, 02:06:00,VALID,916.798,VALID,0,VALID,99.7027,VALID,-0.0509425,VALID,19.0584,VALID,55,VALID,0,
2002-06-03, 02:07:00,VALID,916.829,VALID,0,VALID,99.704,VALID,-0.0849042,VALID,19.0385,VALID,55,VALID,0,
2002-06-03, 02:08:00,VALID,916.845,VALID,0,VALID,99.6976,VALID,-0.0509425,VALID,19.0415,VALID,55,VALID,0.00367647,
2002-06-03, 02:09:00,VALID,916.87,VALID,0,VALID,99.7002,VALID,-0.0509425,VALID,19.0254,VALID,55,VALID,0,
2002-06-03, 02:10:00,VALID,916.891,VALID,0,VALID,99.6925,VALID,-0.0679233,VALID,19.0092,VALID,55,VALID,0,
2002-06-03, 02:11:00,VALID,916.895,VALID,0,VALID,99.69,VALID,-0.0339617,VALID,18.9995,VALID,55,VALID,0,
2002-06-03, 02:12:00,VALID,916.897,VALID,0,VALID,99.6925,VALID,-0.0509425,VALID,18.9931,VALID,55,VALID,0,
2002-06-03, 02:13:00,VALID,916.899,VALID,0,VALID,99.7002,VALID,-0.0509425,VALID,18.9834,VALID,55,VALID,0,
2002-06-03, 02:14:00,VALID,916.882,VALID,0,VALID,99.704,VALID,-0.0509425,VALID,18.9898,VALID,55,VALID,0,
2002-06-03, 02:15:00,VALID,916.86,VALID,0,VALID,99.6963,VALID,-0.0169808,VALID,18.9961,VALID,55,VALID,0,
2002-06-03, 02:16:00,VALID,916.869,VALID,0,VALID,99.6938,VALID,-0.0679233,VALID,18.9995,VALID,55,VALID,0,
2002-06-03, 02:17:00,VALID,916.867,VALID,0,VALID,99.7002,VALID,-0.0339617,VALID,18.9928,VALID,55,VALID,0,
2002-06-03, 02:18:00,VALID,916.862,VALID,0,VALID,99.704,VALID,-0.0509425,VALID,19.0192,VALID,55,VALID,0,
2002-06-03, 02:19:00,VALID,916.851,VALID,0,VALID,99.7014,VALID,-0.0509425,VALID,19.0515,VALID,55,VALID,0.0404018,
2002-06-03, 02:20:00,VALID,916.84,VALID,0,VALID,99.7027,VALID,-0.0339617,VALID,19.087,VALID,70,VALID,0.0799632,
2002-06-03, 02:21:00,VALID,916.816,VALID,0,VALID,99.69,VALID,-0.0509425,VALID,19.122,VALID,123,VALID,0.0884766,
2002-06-03, 02:22:00,VALID,916.8,VALID,0,VALID,99.7027,VALID,-0.0509425,VALID,19.1672,VALID,123,VALID,0.00094697,
2002-06-03, 02:23:00,VALID,916.769,VALID,0,VALID,99.6925,VALID,-0.0509425,VALID,19.2062,VALID,123,VALID,0.000892857,
2002-06-03, 02:24:00,VALID,916.763,VALID,0,VALID,99.6925,VALID,-0.0509425,VALID,19.2385,VALID,108,VALID,0.197461,
2002-06-03, 02:25:00,VALID,916.76,VALID,0,VALID,99.6951,VALID,-0.0339617,VALID,19.2577,VALID,36,VALID,0.355134,
2002-06-03, 02:26:00,VALID,916.766,VALID,0,VALID,99.6951,VALID,-0.0679233,VALID,19.2706,VALID,24,VALID,0.106618,
2002-06-03, 02:27:00,VALID,916.774,VALID,0,VALID,99.6785,VALID,-0.0169808,VALID,19.2972,VALID,24,VALID,0.0402344,
2002-06-03, 02:28:00,VALID,916.783,VALID,0,VALID,99.6913,VALID,-0.0339617,VALID,19.2868,VALID,33,VALID,0.248816,
2002-06-03, 02:29:00,VALID,916.774,VALID,0,VALID,99.6963,VALID,-0.0339617,VALID,19.3036,VALID,68,VALID,0.150893,
2002-06-03, 02:30:00,VALID,916.787,VALID,0,VALID,99.6913,VALID,-0.0169808,VALID,19.2999,VALID,102,VALID,0.375586,
2002-06-03, 02:31:00,VALID,916.793,VALID,0,VALID,99.6951,VALID,-0.0849042,VALID,19.2999,VALID,131,VALID,0.336161,
2002-06-03, 02:32:00,VALID,916.804,VALID,0,VALID,99.6887,VALID,-0.0679233,VALID,19.3262,VALID,134,VALID,0.184053,
2002-06-03, 02:33:00,VALID,916.814,VALID,0,VALID,99.7027,VALID,-0.0509425,VALID,19.3327,VALID,134,VALID,0.110937,
2002-06-03, 02:34:00,VALID,916.828,VALID,0,VALID,99.69,VALID,-0.0339617,VALID,19.3449,VALID,134,VALID,0,
2002-06-03, 02:35:00,VALID,916.852,VALID,0,VALID,99.6951,VALID,-0.0339617,VALID,19.3677,VALID,134,VALID,0,
2002-06-03, 02:36:00,VALID,916.862,VALID,0,VALID,99.6849,VALID,-0.0339617,VALID,19.403,VALID,132,VALID,0,
2002-06-03, 02:37:00,VALID,916.874,VALID,0,VALID,99.6862,VALID,-0.0509425,VALID,19.4589,VALID,85,VALID,0.195089,
2002-06-03, 02:38:00,VALID,916.875,VALID,0,VALID,99.6849,VALID,-0.0849042,VALID,19.4773,VALID,58,VALID,0.275506,
2002-06-03, 02:39:00,VALID,916.86,VALID,0,VALID,99.6798,VALID,-0.0849042,VALID,19.5134,VALID,48,VALID,0.36543,
2002-06-03, 02:40:00,VALID,916.849,VALID,0,VALID,99.6646,VALID,-0.0509425,VALID,19.5516,VALID,32,VALID,0.390625,
2002-06-03, 02:41:00,VALID,916.831,VALID,0,VALID,99.6544,VALID,-0.0169808,VALID,19.5452,VALID,32,VALID,0.174777,
2002-06-03, 02:42:00,VALID,916.803,VALID,0,VALID,99.6747,VALID,-0.0509425,VALID,19.5678,VALID,32,VALID,0.0341797,
2002-06-03, 02:43:00,VALID,916.783,VALID,0,VALID,99.6658,VALID,-0.0339617,VALID,19.5618,VALID,32,VALID,0,
2002-06-03, 02:44:00,VALID,916.76,VALID,0,VALID,99.6722,VALID,-0.0339617,VALID,19.529,VALID,80,VALID,0.144991,
2002-06-03, 02:45:00,VALID,916.74,VALID,0,VALID,99.662,VALID,-0.0169808,VALID,19.5002,VALID,102,VALID,0.354102,
2002-06-03, 02:46:00,VALID,916.729,VALID,0,VALID,99.6785,VALID,-0.0169808,VALID,19.4644,VALID,115,VALID,0.419744,
2002-06-03, 02:47:00,VALID,916.713,VALID,0,VALID,99.6798,VALID,-0.0339617,VALID,19.4582,VALID,126,VALID,0.201562,
2002-06-03, 02:48:00,VALID,916.701,VALID,0,VALID,99.6773,VALID,-0.0169808,VALID,19.4647,VALID,126,VALID,0.157227,
2002-06-03, 02:49:00,VALID,916.675,VALID,0,VALID,99.6836,VALID,-0.0169808,VALID,19.4582,VALID,119,VALID,0.490179,
2002-06-03, 02:50:00,VALID,916.667,VALID,0,VALID,99.6862,VALID,-0.0509425,VALID,19.4582,VALID,112,VALID,0.357077,
2002-06-03, 02:51:00,VALID,916.651,VALID,0,VALID,99.6798,VALID,-0.0169808,VALID,19.4709,VALID,112,VALID,0.197461,
2002-06-03, 02:52:00,VALID,916.64,VALID,0,VALID,99.6785,VALID,-0.0509425,VALID,19.4965,VALID,112,VALID,0.180398,
2002-06-03, 02:53:00,VALID,916.652,VALID,0,VALID,99.6722,VALID,-0.0509425,VALID,19.5325,VALID,111,VALID,0.200893,
2002-06-03, 02:54:00,VALID,916.653,VALID,0,VALID,99.6747,VALID,0,VALID,19.529,VALID,111,VALID,0.218164,
2002-06-03, 02:55:00,VALID,916.656,VALID,0,VALID,99.6747,VALID,-0.0509425,VALID,19.5101,VALID,111,VALID,0.262946,
2002-06-03, 02:56:00,VALID,916.664,VALID,0,VALID,99.6874,VALID,-0.0849042,VALID,19.4798,VALID,111,VALID,0.194164,
2002-06-03, 02:57:00,VALID,916.676,VALID,0,VALID,99.6862,VALID,-0.0849042,VALID,19.484,VALID,111,VALID,0.12168,
2002-06-03, 02:58:00,VALID,916.678,VALID,0,VALID,99.6951,VALID,-0.0679233,VALID,19.4972,VALID,111,VALID,0.190341,
2002-06-03, 02:59:00,VALID,916.693,VALID,0,VALID,99.69,VALID,-0.0679233,VALID,19.5069,VALID,114,VALID,0.331696,
2002-06-03, 03:00:00,VALID,916.693,VALID,0,VALID,99.6862,VALID,-0.0849042,VALID,19.4967,VALID,115,VALID,0.235352,
2002-06-03, 03:01:00,VALID,916.709,VALID,0,VALID,99.6913,VALID,-0.0849042,VALID,19.5196,VALID,115,VALID,0.272098,
2002-06-03, 03:02:00,VALID,916.699,VALID,0,VALID,99.69,VALID,-0.0849042,VALID,19.529,VALID,115,VALID,0.167279,
2002-06-03, 03:03:00,VALID,916.696,VALID,0,VALID,99.6874,VALID,-0.0339617,VALID,19.5352,VALID,115,VALID,0.249609,
2002-06-03, 03:04:00,VALID,916.683,VALID,0,VALID,99.6938,VALID,-0.0339617,VALID,19.5479,VALID,115,VALID,0.26089,
2002-06-03, 03:05:00,VALID,916.667,VALID,0,VALID,99.69,VALID,-0.0509425,VALID,19.5613,VALID,115,VALID,0.382366,
2002-06-03, 03:06:00,VALID,916.661,VALID,0,VALID,99.6862,VALID,-0.0339617,VALID,19.571,VALID,117,VALID,0.595703,
2002-06-03, 03:07:00,VALID,916.647,VALID,0,VALID,99.6874,VALID,-0.0849042,VALID,19.5484,VALID,97,VALID,0.893304,
2002-06-03, 03:08:00,VALID,916.617,VALID,0,VALID,99.6862,VALID,-0.0849042,VALID,19.5255,VALID,78,VALID,1.23874,
2002-06-03, 03:09:00,VALID,916.615,VALID,0,VALID,99.6913,VALID,-0.0339617,VALID,19.497,VALID,73,VALID,1.42754,
2002-06-03, 03:10:00,VALID,916.598,VALID,0,VALID,99.6963,VALID,0,VALID,19.486,VALID,73,VALID,1.17022,
2002-06-03, 03:11:00,VALID,916.579,VALID,0,VALID,99.7052,VALID,0.0169808,VALID,19.4759,VALID,63,VALID,1.2029,
2002-06-03, 03:12:00,VALID,916.585,VALID,0,VALID,99.6925,VALID,0.0339617,VALID,19.4761,VALID,57,VALID,1.28105,
2002-06-03, 03:13:00,VALID,916.547,VALID,0,VALID,99.6874,VALID,0.0169808,VALID,19.4759,VALID,44,VALID,1.25022,
2002-06-03, 03:14:00,VALID,916.516,VALID,0,VALID,99.6963,VALID,0.0169808,VALID,19.4726,VALID,34,VALID,1.3148,
2002-06-03, 03:15:00,VALID,916.501,VALID,0,VALID,99.7027,VALID,0.0339617,VALID,19.4696,VALID,22,VALID,0.999219,
2002-06-03, 03:16:00,VALID,916.494,VALID,0,VALID,99.6938,VALID,0,VALID,19.4726,VALID,358,VALID,0.664536,
2002-06-03, 03:17:00,VALID,916.505,VALID,0,VALID,99.7014,VALID,0.0169808,VALID,19.4662,VALID,306,VALID,0.797991,
2002-06-03, 03:18:00,VALID,916.519,VALID,0,VALID,99.704,VALID,0.0169808,VALID,19.4759,VALID,265,VALID,0.677344,
2002-06-03, 03:19:00,VALID,916.524,VALID,0,VALID,99.6938,VALID,0.0169808,VALID,19.4885,VALID,255,VALID,0.736607,
2002-06-03, 03:20:00,VALID,916.517,VALID,0,VALID,99.6951,VALID,0.0169808,VALID,19.4987,VALID,252,VALID,0.447381,
2002-06-03, 03:21:00,VALID,916.513,VALID,0,VALID,99.7027,VALID,-0.0169808,VALID,19.5149,VALID,252,VALID,0.059375,
2002-06-03, 03:22:00,VALID,916.492,VALID,0,VALID,99.6925,VALID,0.0339617,VALID,19.5141,VALID,164,VALID,0.322206,
2002-06-03, 03:23:00,VALID,916.473,VALID,0,VALID,99.6887,VALID,0.0509425,VALID,19.5211,VALID,75,VALID,0.691295,
2002-06-03, 03:24:00,VALID,916.454,VALID,0,VALID,99.6951,VALID,0.0169808,VALID,19.4987,VALID,90,VALID,0.72207,
2002-06-03, 03:25:00,VALID,916.428,VALID,0,VALID,99.6938,VALID,0.0339617,VALID,19.4823,VALID,85,VALID,0.902232,
2002-06-03, 03:26:00,VALID,916.394,VALID,0,VALID,99.69,VALID,-0.0169808,VALID,19.4634,VALID,86,VALID,0.704963,
2002-06-03, 03:27:00,VALID,916.378,VALID,0,VALID,99.7027,VALID,0.0509425,VALID,19.4376,VALID,83,VALID,0.63418,
2002-06-03, 03:28:00,VALID,916.342,VALID,0,VALID,99.7052,VALID,0,VALID,19.4247,VALID,84,VALID,0.62642,
2002-06-03, 03:29:00,VALID,916.321,VALID,0,VALID,99.7078,VALID,0,VALID,19.4083,VALID,79,VALID,0.709152,
2002-06-03, 03:30:00,VALID,916.311,VALID,0,VALID,99.7103,VALID,0.0169808,VALID,19.4021,VALID,83,VALID,0.688672,
2002-06-03, 03:31:00,VALID,916.3,VALID,0,VALID,99.7052,VALID,0,VALID,19.406,VALID,93,VALID,0.683929,
2002-06-03, 03:32:00,VALID,916.297,VALID,0,VALID,99.7154,VALID,0.0169808,VALID,19.3824,VALID,90,VALID,0.591912,
2002-06-03, 03:33:00,VALID,916.282,VALID,0,VALID,99.718,VALID,0,VALID,19.3702,VALID,88,VALID,0.207031,
2002-06-03, 03:34:00,VALID,916.279,VALID,0,VALID,99.7192,VALID,0,VALID,19.3539,VALID,47,VALID,0.755682,
2002-06-03, 03:35:00,VALID,916.282,VALID,0,VALID,99.7167,VALID,0,VALID,19.3596,VALID,10,VALID,0.321875,